Terminal Aerodrome Forecast
Issued by NWS Mt. Holly, NJ

Home | Current Version | Previous Version | Text Only | Print | Product List | Glossary On
Versions: 1 2 3 4 5 6 7 8 9 10 11 12 13 14 15 16 17 18 19
000
FTUS41 KPHI 221100
TAFILG
TAF
KILG 221130Z 2212/2312 VRB03KT P6SM SKC
     FM221400 18008KT P6SM SCT040
      TEMPO 2216/2219 BKN040
     FM222200 18009KT P6SM FEW250
     FM230900 19003KT 4SM BR SCT250=

USA.gov is the U.S. government's official web portal to all federal, state and local government web resources and services.